[[{"header":{"parameterUnit":"m.s-1","parameterCategory":1,"la1":30.2991,"la2":30.254,"lo1":-89.0895,"lo2":-89.0444,"dy":0.0017,"dx":0.0017,"nx":28,"ny":28,"refTime":"2023-10-19T21:00:00:Z","depth":0,"parameterNumber":2,"parameterNumberName":"U-component_of_WINDS"},"data":[0,0,0,0,0,0,0,0,0,0,0,0,0,0,0,0,0,0,0,0,0,0,0,0,0,0,0,0,0,0,0,0,0,0,0,0,0,0,0,0,0,0,0,0,0,0,0,0,0,0,0,0,0,0,0,0,0,0,4.0033,4.0033,0,4.0068,4.0068,4.0069,3.9958,3.9954,3.9951,3.9948,3.9988,3.9992,3.9997,0,0,0,0,0,0,0,0,0,0,0,0,0,3.9874,3.9877,4.0032,4.0033,4.0033,4.0068,4.0068,4.0069,3.9958,3.9954,3.995,3.9946,3.9987,3.9992,3.9997,0,0,0,0,0,0,0,0,0,0,0,0,0,3.9929,3.9878,4.0032,3.9982,3.9978,4.0068,4.0068,4.0069,3.9959,3.9954,3.9949,3.9944,3.9985,3.9991,3.9998,4.0139,0,0,4.0017,4.002,0,0,0,0,0,0,0,0,3.9926,3.9935,3.9989,3.9986,3.9981,4.0003,4.0027,4.0092,3.996,3.9967,3.9948,3.9942,3.9998,4.0003,4.0021,4.0141,4.0142,4.0018,4.0022,4.0024,4.0026,0,0,0,0,0,0,0,3.9923,3.9933,4.0046,3.999,3.9985,3.9959,3.9962,4.0039,4.001,3.9966,3.9958,3.9963,3.9995,4.0015,4.0021,4.0143,4.0018,4.0023,4.0027,4.003,4.0381,4.0386,0,0,0,0,0,0,3.9925,3.9931,4.0045,4.0048,3.9941,3.9966,3.9969,4.0001,4.0009,4.0005,3.9967,3.9958,4.0006,4.0013,4.0022,4.0188,4.0024,4.003,4.0034,4.0376,4.0382,4.0388,0,0,0,0,0,0,3.9922,3.9936,4.0044,3.9987,3.9999,3.9974,4.0012,4.0005,4.0025,4.001,4.0005,3.9993,4.0003,4.0013,4.011,4.0187,4.0033,4.0039,4.0369,4.0378,4.0385,4.0521,0,0,0,0,0,0,3.9918,3.9936,3.9988,3.9989,4.0002,4.0131,4.0016,4.0009,4.0035,4.0023,4.0033,4.003,3.9999,4.0101,4.0117,4.0193,4.0044,4.0362,4.0373,4.0383,4.0509,4.0532,4.0552,0,0,0,0,0,3.9912,4.0025,3.9991,4.0006,4.0067,4.0136,4.0143,4.0105,4.0042,4.0095,4.0086,4.0029,4.0176,4.0112,4.0129,4.0209,4.0357,4.037,4.0382,4.0499,4.0528,4.0552,0,0,0,0,0,0,4.0035,4.0025,3.9986,4.0103,4.0121,4.0117,4.0182,4.0136,4.0173,4.0161,4.0113,4.0116,4.0222,4.0225,4.0154,4.0346,4.0256,4.0273,4.034,4.0367,4.0388,4.0386,4.0049,0,0,0,0,0,4.0076,4.0131,4.0119,4.0223,4.0234,4.0207,4.0236,4.0204,4.0222,4.0229,4.0227,4.0247,4.0298,4.0332,4.0378,4.0509,4.051,4.0572,4.0594,4.0611,4.0626,4.0696,4.0724,4.0429,4.0429,4.0429,0,0,4.0161,4.0161,4.02,4.0248,4.0258,4.0318,4.0214,4.0282,4.0326,4.024,4.0331,4.0331,4.035,4.0465,4.0516,4.0471,4.0708,4.0627,4.0642,4.0647,4.0712,4.074,4.0765,4.0438,4.0436,4.0435,0,0,4.0345,4.0351,4.0439,4.0451,4.0467,4.0448,4.047,4.0473,4.0469,4.0559,4.0496,4.0549,4.0637,4.0653,4.0673,4.0865,4.0815,4.0882,4.0995,4.1064,4.1087,4.1107,4.1177,4.1202,4.0896,4.0897,4.0897,0,4.0449,4.0535,4.049,4.0562,4.0586,4.0509,4.0598,4.0612,4.0644,4.0663,4.0611,4.072,4.0728,4.0846,4.0893,4.0911,4.0935,4.088,4.1087,4.1107,4.1125,4.1191,4.1217,4.0905,4.0904,4.0903,4.0902,0,4.0662,4.0723,4.0792,4.0823,4.0854,4.0935,4.0903,4.0941,4.0907,4.0894,4.0988,4.0995,4.104,4.1066,4.1034,4.118,4.1152,4.1095,4.1004,4.1162,4.1223,4.1248,4.0916,4.0913,4.0911,4.0909,0,0,4.0926,4.093,4.0956,4.0969,4.0982,4.1029,4.1107,4.115,4.1184,4.1208,4.1273,4.1349,4.1296,4.1319,4.1288,4.1349,4.1501,4.1284,4.1284,4.1325,4.1663,4.1707,4.1737,4.1468,4.1472,4.1476,4.1662,0,4.1108,4.1239,4.1201,4.1333,4.1389,4.1317,4.1385,4.1401,4.1391,4.1438,4.1428,4.1483,4.1409,4.1422,4.1479,4.1471,4.1569,4.1457,4.1529,4.1532,4.1527,4.1768,4.1814,4.1989,4.1685,4.1689,4.1692,0,4.1338,4.137,4.1508,4.1511,4.1533,4.1595,4.1632,4.1678,4.1695,4.1683,4.1709,4.1666,4.1744,4.1653,4.1759,4.1684,4.1711,4.1712,4.1718,4.1724,4.1622,4.1781,4.2044,4.2071,4.1729,4.1726,4.1724,0,4.1517,4.1595,4.1687,4.1701,4.1707,4.1752,4.1757,4.1769,4.1798,4.1831,4.1849,4.1892,4.1915,4.1949,4.192,4.1856,4.2032,4.1938,4.2026,4.2027,4.2067,4.2065,4.2339,4.2084,4.2083,4.2083,4.2082,0,4.1725,4.1812,4.1768,4.1825,4.1921,4.1877,4.1974,4.197,4.1982,4.2038,4.1979,4.2033,4.199,4.2041,4.2018,4.2111,4.2122,4.2116,4.2109,4.2122,4.2123,4.214,4.2127,4.209,4.2088,4.2087,4.2086,0,4.1942,4.1915,4.2011,4.2009,4.2011,4.2082,4.208,4.2134,4.212,4.2192,4.2206,4.2185,4.2242,4.2215,4.2275,4.226,4.238,4.2356,4.2374,4.2368,4.2458,4.245,4.2753,4.2791,4.2511,4.2513,4.2516,0,4.2076,4.2141,4.2146,4.2179,4.2187,4.2241,4.227,4.223,4.2262,4.2287,4.2338,4.2389,4.2429,4.2523,4.2514,4.256,4.2538,4.264,4.2544,4.2555,4.254,4.2537,4.2544,4.266,4.2663,4.2666,4.2668,0,4.2318,4.2302,4.2345,4.2384,4.242,4.245,4.2474,4.2504,4.2465,4.2505,4.2562,4.2592,4.2653,4.2706,4.2746,4.2752,4.2705,4.2698,4.2721,4.2736,4.2743,4.2741,4.2427,4.2692,4.269,4.2688,4.2687,4.2686,4.2498,4.2553,4.2565,4.2615,4.2629,4.2654,4.2704,4.2696,4.2742,4.2787,4.2761,4.2828,4.2844,4.2893,4.2906,4.2959,4.2918,4.2952,4.296,4.2969,4.2981,4.2734,4.2966,4.2965,4.2965,4.2964,4.2963,0,4.2738,4.2742,4.2788,4.2824,4.2864,4.2814,4.2839,4.2876,4.2935,4.2954,4.2993,4.3059,4.311,4.3105,4.3151,4.3195,4.3174,4.3209,4.3206,4.3208,4.3015,4.299,4.3225,4.3224,4.3224,4.3224,4.3224,4.3224,4.2867,4.2957,4.2943,4.304,4.3044,4.3108,4.3127,4.3149,4.3164,4.324,4.3281,4.3277,4.3286,4.3333,4.3378,4.3375,4.3396,4.3438,4.3428,4.3247,4.3222,4.3197,4.3174,4.3443,4.3443,4.3617,4.3618,4.362]},{"header":{"parameterUnit":"m.s-1","parameterCategory":1,"la1":30.2991,"la2":30.254,"lo1":-89.0895,"lo2":-89.0444,"dy":0.0017,"dx":0.0017,"nx":28,"ny":28,"refTime":"2023-10-19T21:00:00:Z","depth":0,"parameterNumber":3,"parameterNumberName":"V-component_of_WINDS"},"data":[0,0,0,0,0,0,0,0,0,0,0,0,0,0,0,0,0,0,0,0,0,0,0,0,0,0,0,0,0,0,0,0,0,0,0,0,0,0,0,0,0,0,0,0,0,0,0,0,0,0,0,0,0,0,0,0,0,0,1.7036,1.7037,0,1.7133,1.7134,1.7135,1.7148,1.7147,1.7146,1.7145,1.7244,1.7247,1.7251,0,0,0,0,0,0,0,0,0,0,0,0,0,1.6862,1.6865,1.7036,1.7037,1.7038,1.7132,1.7134,1.7135,1.7148,1.7147,1.7146,1.7145,1.7243,1.7247,1.7251,0,0,0,0,0,0,0,0,0,0,0,0,0,1.6946,1.6866,1.7036,1.7056,1.7059,1.7132,1.7134,1.7135,1.7148,1.7147,1.7146,1.7144,1.7241,1.7246,1.7251,1.7311,0,0,1.7267,1.727,0,0,0,0,0,0,0,0,1.6941,1.6952,1.7052,1.7055,1.7058,1.7127,1.7109,1.7194,1.7149,1.7114,1.7145,1.7144,1.7206,1.7214,1.7235,1.7315,1.7319,1.7268,1.7271,1.7273,1.7275,0,0,0,0,0,0,0,1.6935,1.6948,1.7074,1.7053,1.7057,1.706,1.7071,1.7125,1.7167,1.7117,1.7119,1.713,1.7207,1.723,1.7237,1.7321,1.7268,1.7272,1.7275,1.7277,1.7454,1.7456,0,0,0,0,0,0,1.6926,1.6943,1.7071,1.7077,1.6995,1.7065,1.7076,1.7106,1.7166,1.7174,1.7131,1.713,1.7222,1.7231,1.7241,1.7314,1.7273,1.7278,1.7281,1.7452,1.7454,1.7456,0,0,0,0,0,0,1.6922,1.6937,1.7067,1.7011,1.7027,1.7069,1.7103,1.7109,1.7131,1.7176,1.7184,1.7146,1.7221,1.7234,1.7293,1.7317,1.728,1.7285,1.7451,1.7453,1.7455,1.746,0,0,0,0,0,0,1.6917,1.6936,1.6959,1.7011,1.703,1.7118,1.7104,1.7112,1.714,1.714,1.7193,1.72,1.7221,1.7285,1.7298,1.7324,1.7289,1.7449,1.7452,1.7454,1.7458,1.7463,1.7466,0,0,0,0,0,1.6911,1.6956,1.696,1.6975,1.706,1.7119,1.713,1.7154,1.7142,1.7166,1.7195,1.7199,1.7313,1.7291,1.7306,1.7334,1.7447,1.7451,1.7454,1.7456,1.7462,1.7466,0,0,0,0,0,0,1.6906,1.6964,1.6968,1.7032,1.7071,1.7121,1.7152,1.7159,1.7201,1.7199,1.7226,1.7238,1.7296,1.7321,1.7296,1.7394,1.7379,1.7386,1.7375,1.7381,1.7385,1.7378,1.7293,0,0,0,0,0,1.6912,1.6956,1.7004,1.7055,1.7074,1.711,1.7136,1.7151,1.7192,1.7208,1.7242,1.7281,1.7326,1.7355,1.7399,1.7462,1.7473,1.7488,1.7492,1.7495,1.7501,1.7536,1.7543,1.7468,1.7468,1.7468,0,0,1.6926,1.6962,1.6988,1.7055,1.7087,1.7131,1.7123,1.7171,1.7204,1.7216,1.7274,1.7299,1.7345,1.7407,1.7436,1.7429,1.7524,1.75,1.7502,1.7506,1.754,1.7547,1.7553,1.747,1.747,1.7469,0,0,1.6973,1.7005,1.7052,1.7083,1.7132,1.7155,1.7166,1.7216,1.7233,1.7292,1.7302,1.7342,1.7418,1.745,1.7477,1.7536,1.7541,1.7549,1.7571,1.7604,1.761,1.7616,1.7636,1.7644,1.7555,1.7555,1.7555,0,1.6983,1.705,1.7074,1.7121,1.715,1.7163,1.721,1.724,1.73,1.732,1.7312,1.7408,1.744,1.7509,1.7524,1.7545,1.7558,1.7543,1.7608,1.7613,1.7619,1.7639,1.7646,1.7555,1.7555,1.7555,1.7555,0,1.7061,1.7107,1.7139,1.7197,1.7229,1.7276,1.7307,1.7337,1.7349,1.7372,1.7432,1.7471,1.7522,1.754,1.7552,1.7611,1.7605,1.7602,1.7588,1.7626,1.7645,1.7653,1.7556,1.7556,1.7556,1.7556,0,0,1.7107,1.7178,1.7189,1.7215,1.7269,1.7305,1.7352,1.7403,1.7428,1.7469,1.7509,1.7574,1.7571,1.7601,1.7617,1.7646,1.769,1.764,1.7641,1.7647,1.7757,1.7759,1.7767,1.7694,1.7696,1.7697,1.7753,0,1.716,1.7245,1.7268,1.734,1.7383,1.7396,1.7437,1.7474,1.7498,1.7537,1.7563,1.7608,1.7602,1.762,1.765,1.7678,1.7712,1.7675,1.7731,1.7733,1.7719,1.7777,1.7779,1.783,1.7761,1.7762,1.7763,0,1.7234,1.7276,1.7352,1.74,1.7419,1.7456,1.7504,1.7542,1.7584,1.7599,1.7633,1.7645,1.7695,1.7678,1.7746,1.772,1.7744,1.7761,1.7764,1.777,1.775,1.7784,1.7847,1.7855,1.7775,1.7774,1.7773,0,1.7259,1.7335,1.7391,1.7413,1.747,1.7496,1.7521,1.7562,1.7591,1.7633,1.7652,1.7699,1.7725,1.7761,1.7786,1.7771,1.7852,1.7837,1.7865,1.7865,1.7881,1.788,1.7949,1.7898,1.7898,1.7897,1.7897,0,1.7316,1.7362,1.7403,1.7437,1.7488,1.7514,1.7565,1.759,1.7627,1.7666,1.768,1.7716,1.7747,1.7787,1.7807,1.786,1.7872,1.7885,1.789,1.7884,1.7882,1.79,1.7896,1.7899,1.7899,1.7899,1.7898,0,1.7353,1.7383,1.7444,1.7493,1.7507,1.7543,1.7585,1.7619,1.7643,1.7692,1.7705,1.7742,1.779,1.7819,1.7879,1.7893,1.7951,1.7955,1.7937,1.7939,1.7965,1.7962,1.8048,1.806,1.8001,1.8002,1.8002,0,1.7387,1.7423,1.7476,1.7504,1.7529,1.7573,1.7602,1.7629,1.7659,1.7711,1.7737,1.7786,1.7827,1.7903,1.7936,1.7982,1.7986,1.8013,1.7993,1.7986,1.7986,1.7984,1.7987,1.8016,1.8017,1.8017,1.8017,0,1.7444,1.7457,1.7499,1.7547,1.7582,1.762,1.7659,1.768,1.7713,1.7746,1.7796,1.7827,1.7889,1.7938,1.7987,1.8012,1.802,1.8024,1.8032,1.8026,1.8014,1.8021,1.7946,1.8021,1.8021,1.8021,1.802,1.802,1.7481,1.7513,1.7555,1.7602,1.7634,1.7669,1.7703,1.7731,1.7773,1.7826,1.7839,1.7891,1.7932,1.7999,1.8026,1.8066,1.8062,1.8075,1.8078,1.8081,1.8081,1.8008,1.8075,1.8075,1.8075,1.8075,1.8075,0,1.7538,1.7566,1.7609,1.7662,1.7698,1.7703,1.7746,1.7776,1.7821,1.786,1.7899,1.7956,1.8003,1.8039,1.8087,1.8112,1.8117,1.8124,1.8122,1.8128,1.8083,1.807,1.8119,1.8119,1.8119,1.8119,1.8119,1.8119,1.7572,1.7626,1.7644,1.7714,1.7742,1.7793,1.7817,1.785,1.788,1.7943,1.7982,1.8006,1.8043,1.8094,1.8137,1.8146,1.8163,1.8169,1.8179,1.8136,1.8131,1.8127,1.8115,1.8173,1.8173,1.8221,1.8221,1.8222]}]]